Wind_Speed
44 46 46 46 46 48 49 49 50 50 50 50 50 51 52 52 52 53 52 53 53 53 53 53 53 54 54 54 55 55 56 56 55 53 52 52 53 53 52 52 53 53 54
45 46 46 47 47 48 49 49 49 50 50 50 50 50 50 50 50 51 51 51 52 52 52 53 54 54 54 54 54 54 55 55 55 53 52 53 53 53 53 53 53 54 54
46 47 47 47 48 48 49 49 49 50 50 49 49 49 49 49 50 49 49 50 51 52 52 52 53 53 53 53 53 53 54 54 54 54 53 53 53 53 54 54 54 55 55
45 46 47 47 48 49 50 51 51 50 49 48 48 49 49 49 48 48 49 49 50 51 51 51 52 53 52 52 52 52 52 53 53 53 53 53 52 52 54 54 53 53 52
45 46 47 48 48 49 49 50 49 48 48 47 47 48 49 48 49 49 49 49 50 51 51 50 51 51 52 52 52 52 51 51 52 52 52 52 52 51 51 51 51 50 50
45 45 46 47 48 48 48 47 47 47 47 47 46 47 48 48 49 50 50 50 50 50 50 50 50 50 50 50 50 50 50 50 50 50 50 50 50 49 49 49 48 48 48
44 45 45 46 46 46 46 46 46 46 46 46 47 48 48 48 49 50 51 51 50 49 49 49 49 48 48 49 49 49 50 49 49 48 48 48 48 47 46 45 45 46 45
43 44 44 45 45 44 44 44 45 45 45 46 46 48 49 49 49 49 50 50 49 49 50 49 48 48 48 48 48 49 49 48 48 47 47 46 45 45 43 43 43 43 43
43 43 43 43 43 43 43 43 44 45 45 46 47 48 48 48 48 48 48 48 48 48 48 48 48 47 47 48 48 47 47 46 46 45 44 43 42 42 41 41 40 41 40
41 42 42 42 42 43 43 43 44 45 45 45 45 46 47 47 47 48 49 48 48 47 47 47 47 47 47 46 45 45 44 42 42 41 41 41 40 40 39 39 38 38 38
40 41 42 42 42 43 43 44 44 44 44 44 45 45 45 46 46 48 48 48 48 47 46 46 46 45 44 43 42 41 39 39 38 38 38 38 39 39 38 37 37 36 36
40 41 41 41 42 42 42 43 43 43 43 43 43 44 44 45 45 45 45 46 46 45 44 44 44 42 41 39 38 38 37 36 37 37 36 36 36 36 35 35 35 35 33
40 40 41 41 41 41 41 42 43 43 43 43 43 43 43 44 44 44 44 43 43 43 42 41 40 39 37 36 36 35 34 34 34 34 34 34 34 34 34 34 34 33 33
39 39 40 40 40 40 41 42 42 42 42 42 42 42 42 42 42 42 41 39 39 39 38 36 36 34 33 33 33 33 32 32 32 32 32 32 32 32 32 31 31 32 32
39 39 39 39 40 40 41 41 41 42 42 41 41 41 41 39 39 39 38 37 36 35 33 31 30 30 30 30 30 30 30 30 31 30 30 30 30 29 29 29 29 29 29
39 39 39 39 40 40 40 40 41 41 40 40 39 39 38 37 36 35 34 33 32 30 29 28 27 26 27 28 28 29 29 30 29 28 28 28 27 27 27 27 27 28 29
39 39 39 39 39 39 39 39 39 39 38 38 37 36 35 34 33 32 30 29 28 27 26 25 24 23 24 25 26 27 27 27 26 25 25 25 24 24 24 25 25 26 27
39 39 39 38 38 38 38 38 37 36 36 35 35 34 33 32 31 30 28 27 25 24 23 22 21 21 21 22 23 23 24 24 24 24 24 23 22 23 23 23 24 24 25
38 38 38 38 37 37 36 36 35 34 33 32 32 31 30 29 28 27 25 23 22 21 20 19 19 19 20 20 20 20 20 20 21 21 22 22 22 22 22 22 23 23 23
37 37 37 36 36 35 34 34 33 32 31 30 29 28 27 26 24 23 21 19 19 19 18 18 18 18 18 18 18 18 18 18 18 19 19 20 20 20 21 21 21 22 21
35 35 35 35 34 33 33 32 31 30 29 28 27 26 25 23 22 20 18 18 17 17 17 17 17 17 17 17 18 17 17 16 17 17 18 18 19 19 20 20 20 20 20
33 33 33 33 32 31 30 30 28 27 26 25 24 23 22 21 19 18 17 16 16 16 16 16 16 16 16 17 17 16 15 16 16 16 16 17 18 19 19 19 20 20 20
31 30 30 30 29 28 27 26 24 24 23 22 21 20 19 18 16 16 15 15 15 15 15 15 15 15 15 15 14 13 13 14 14 14 15 16 17 17 18 19 19 19 19
29 29 28 27 25 24 23 23 22 21 21 20 19 18 17 16 15 14 13 13 12 13 13 13 14 13 13 13 12 12 12 12 12 12 13 14 15 15 16 16 16 16 16
26 26 25 24 23 22 21 20 20 19 19 18 17 16 15 14 14 13 12 12 13 12 12 13 13 12 12 12 11 11 11 11 11 11 12 12 12 13 13 13 13 14 14
24 23 22 22 21 20 20 19 18 18 17 16 15 14 14 14 13 13 13 13 13 13 12 12 12 12 12 11 11 11 11 11 11 11 11 11 11 12 12 13 13 13 13
Wind_Direction
279 280 281 281 282 281 281 281 281 281 281 281 281 280 279 277 277 277 277 278 278 277 276 276 275 274 274 274 274 273 272 271 271 270 269 269 268 269 269 268 268 269 268
280 280 281 281 281 281 281 281 281 281 281 281 282 281 280 278 278 278 278 279 279 278 277 277 277 275 274 274 274 273 272 272 271 270 268 268 268 268 268 268 269 268 268
280 281 281 281 282 282 282 282 282 281 281 282 282 281 280 278 278 279 280 280 279 279 280 279 278 276 275 274 274 274 273 272 271 270 269 268 269 269 268 269 269 269 268
281 281 281 282 283 283 283 283 282 282 281 281 281 281 280 279 279 280 281 280 280 281 281 280 279 277 276 275 275 275 273 272 272 271 270 268 270 270 270 268 268 268 267
282 282 282 283 283 284 285 284 283 281 281 280 281 281 281 281 280 280 282 281 281 281 281 281 280 279 277 277 276 275 274 273 272 271 271 270 270 271 270 268 267 266 266
282 282 283 283 284 285 285 284 283 282 281 281 281 282 282 282 282 281 282 282 282 282 281 281 281 280 278 277 277 276 276 275 273 272 271 271 270 269 269 268 267 265 265
282 282 283 284 285 285 285 284 283 283 282 281 281 282 283 283 283 282 282 282 282 282 282 281 281 280 279 278 277 276 276 275 274 273 271 271 269 269 268 267 266 266 266
282 283 284 285 285 284 285 284 284 283 283 283 283 284 284 283 282 282 283 283 282 283 282 281 280 279 279 278 278 277 276 275 274 272 271 269 268 267 266 266 265 264 265
282 283 284 285 285 285 286 286 285 285 285 284 285 285 285 284 283 283 284 284 284 283 282 281 280 279 279 279 278 277 276 274 272 271 269 267 266 266 266 266 265 264 263
282 283 284 285 285 286 287 287 288 287 287 286 287 286 286 285 285 284 284 284 284 283 282 280 279 278 278 277 277 276 275 273 271 270 269 266 265 266 266 266 266 265 264
283 284 286 286 287 288 288 288 288 288 289 288 289 288 288 287 287 287 285 284 283 282 281 280 279 278 278 276 275 274 273 272 269 268 267 266 266 266 266 265 265 264 263
283 286 287 288 288 288 289 290 289 289 290 290 290 290 290 289 289 289 287 285 283 282 281 280 279 278 277 275 274 272 271 269 268 267 265 265 266 266 266 265 264 262 262
284 286 288 289 289 289 290 291 291 291 291 292 291 291 292 291 291 290 287 285 283 282 281 280 280 278 275 274 273 272 271 269 268 267 265 265 266 265 264 263 261 261 260
286 287 289 290 290 291 292 292 292 291 291 292 292 293 294 294 292 291 289 287 285 284 283 282 280 277 274 272 270 269 270 269 268 267 266 264 264 263 263 261 259 259 258
287 288 290 290 291 291 292 292 293 293 292 293 294 295 295 294 293 293 291 289 287 286 284 283 281 277 273 271 268 268 269 269 269 267 265 262 261 261 261 260 258 257 256
287 289 289 290 291 292 293 293 294 295 295 295 296 297 298 296 294 294 292 291 289 287 285 283 281 279 276 272 269 268 268 268 269 268 265 259 258 259 260 259 259 258 256
287 288 289 291 292 292 294 295 295 296 296 296 296 297 299 299 297 295 292 290 287 285 284 284 282 279 277 274 271 269 268 268 267 264 260 258 258 259 259 258 258 258 257
287 289 291 292 293 294 295 296 296 296 296 297 298 299 300 299 297 295 291 288 285 284 282 282 281 279 279 278 275 271 269 266 264 260 258 256 256 257 257 258 259 259 259
288 289 291 293 294 295 295 295 296 296 297 298 299 299 299 299 296 294 290 286 285 282 280 280 280 280 280 279 276 273 270 266 263 260 257 254 254 255 256 257 258 259 258
289 290 291 293 293 294 295 296 296 296 298 299 300 299 299 297 294 292 289 286 284 280 277 279 280 280 280 279 278 277 274 270 265 261 255 253 255 256 257 257 257 256 256
289 290 291 292 293 294 295 295 296 296 297 298 298 298 297 296 294 291 288 284 281 279 278 279 281 280 278 279 280 278 273 269 265 260 256 256 257 257 256 255 254 255 255
290 290 291 293 294 295 295 295 296 296 296 296 296 297 296 293 291 288 286 282 279 276 276 278 279 280 280 280 280 277 274 270 266 262 260 261 261 258 256 255 256 257 257
290 291 293 294 295 296 296 296 296 297 297 297 295 295 295 293 289 286 284 283 282 279 275 274 275 276 277 277 274 272 272 269 265 263 263 263 261 259 257 256 256 257 257
289 291 293 295 296 296 296 297 297 297 298 297 295 294 292 291 290 289 286 285 285 282 279 276 274 276 277 275 273 273 274 270 266 267 267 265 261 259 257 254 254 254 255
288 290 292 294 295 295 296 296 296 297 297 297 295 292 289 288 287 287 285 285 287 285 283 281 278 276 277 275 274 274 274 272 272 275 274 266 260 257 255 253 253 254 255
290 290 291 293 294 294 294 295 296 296 296 295 292 288 286 285 284 284 284 285 285 285 284 283 280 279 279 278 274 274 275 272 272 277 279 271 263 260 258 257 257 257 255
Height
5638 5636 5634 5633 5631 5629 5626 5624 5621 5619 5616 5614 5611 5609 5607 5605 5603 5601 5599 5597 5596 5595 5593 5591 5590 5589 5587 5586 5585 5584 5583 5582 5584 5587 5587 5586 5585 5585 5585 5584 5584 5584 5584
5626 5624 5622 5620 5618 5616 5614 5611 5608 5605 5603 5600 5598 5595 5593 5591 5589 5587 5585 5583 5582 5580 5578 5577 5575 5573 5572 5571 5570 5568 5567 5567 5567 5570 5571 5571 5570 5570 5569 5569 5569 5569 5569
5614 5612 5610 5608 5605 5603 5600 5597 5595 5592 5589 5587 5584 5582 5579 5577 5575 5573 5571 5570 5568 5566 5564 5562 5560 5559 5557 5556 5554 5553 5552 5551 5551 5552 5554 5555 5555 5554 5554 5554 5553 5553 5553
5602 5600 5597 5595 5592 5590 5587 5584 5581 5578 5576 5573 5571 5568 5566 5563 5561 5560 5558 5556 5554 5552 5550 5548 5546 5544 5543 5541 5540 5538 5537 5536 5536 5536 5537 5539 5539 5539 5538 5538 5538 5538 5538
5590 5588 5586 5582 5579 5576 5573 5570 5567 5564 5562 5560 5558 5555 5553 5550 5548 5546 5544 5542 5540 5538 5536 5533 5531 5529 5527 5526 5525 5524 5522 5521 5521 5521 5522 5523 5523 5523 5523 5522 5522 5523 5524
5579 5576 5573 5570 5567 5564 5560 5557 5554 5552 5549 5547 5544 5542 5540 5537 5535 5533 5530 5528 5526 5524 5522 5519 5517 5515 5513 5511 5510 5509 5508 5507 5506 5506 5507 5507 5508 5508 5507 5507 5507 5508 5510
5567 5565 5562 5558 5555 5552 5548 5545 5542 5539 5536 5534 5531 5529 5526 5524 5521 5518 5516 5514 5512 5510 5507 5505 5503 5501 5499 5497 5496 5494 5493 5492 5491 5491 5492 5492 5493 5494 5493 5493 5494 5494 5496
5556 5553 5550 5547 5544 5540 5536 5533 5530 5527 5524 5521 5518 5516 5513 5510 5507 5504 5502 5500 5498 5495 5493 5491 5489 5487 5485 5483 5481 5480 5479 5478 5477 5477 5478 5478 5479 5479 5479 5480 5481 5482 5483
5544 5542 5538 5535 5532 5528 5525 5521 5518 5515 5512 5509 5506 5503 5499 5496 5493 5491 5488 5485 5483 5481 5479 5476 5474 5472 5471 5468 5467 5466 5466 5465 5464 5464 5464 5465 5465 5466 5466 5467 5469 5470 5471
5533 5530 5527 5524 5521 5517 5514 5510 5507 5503 5500 5497 5493 5489 5486 5483 5480 5477 5474 5471 5469 5467 5465 5463 5460 5458 5456 5454 5452 5452 5452 5452 5452 5452 5452 5452 5453 5454 5455 5456 5457 5458 5460
5522 5519 5516 5513 5510 5506 5503 5499 5496 5492 5489 5485 5482 5478 5474 5470 5467 5464 5460 5457 5455 5453 5451 5449 5447 5444 5442 5441 5440 5439 5439 5439 5439 5440 5440 5441 5442 5443 5443 5444 5446 5447 5448
5512 5509 5506 5502 5499 5495 5492 5488 5484 5481 5478 5474 5470 5466 5462 5458 5454 5451 5447 5444 5441 5439 5437 5436 5434 5431 5430 5428 5428 5427 5427 5427 5427 5428 5429 5430 5431 5432 5433 5434 5435 5436 5438
5501 5498 5495 5491 5488 5484 5481 5477 5473 5469 5466 5462 5458 5455 5451 5447 5442 5438 5435 5432 5428 5426 5425 5423 5421 5419 5418 5417 5417 5416 5416 5416 5417 5417 5418 5420 5421 5422 5423 5424 5425 5426 5428
5491 5488 5484 5481 5477 5474 5470 5466 5462 5458 5454 5450 5447 5443 5440 5435 5431 5427 5423 5420 5417 5415 5413 5411 5410 5408 5407 5407 5407 5406 5406 5407 5407 5408 5409 5410 5411 5412 5413 5414 5415 5417 5419
5480 5477 5473 5470 5466 5463 5459 5455 5451 5447 5442 5439 5435 5432 5428 5425 5420 5416 5412 5409 5407 5404 5403 5402 5400 5399 5398 5397 5397 5397 5397 5398 5398 5399 5399 5401 5402 5403 5404 5405 5407 5408 5410
5469 5466 5463 5460 5456 5452 5449 5445 5440 5436 5432 5427 5423 5420 5417 5413 5409 5406 5403 5400 5397 5395 5394 5393 5392 5390 5389 5389 5389 5389 5389 5389 5390 5390 5391 5392 5393 5395 5396 5397 5398 5400 5401
5458 5455 5452 5449 5445 5442 5438 5435 5431 5427 5422 5417 5413 5410 5406 5403 5399 5396 5393 5391 5389 5387 5386 5385 5384 5383 5382 5381 5381 5381 5381 5381 5382 5382 5383 5385 5386 5387 5388 5389 5390 5392 5393
5447 5444 5441 5438 5435 5432 5428 5424 5421 5417 5414 5409 5404 5400 5397 5394 5390 5387 5385 5383 5382 5380 5379 5378 5377 5376 5375 5374 5374 5374 5374 5374 5374 5375 5376 5378 5379 5380 5381 5382 5383 5384 5385
5436 5434 5431 5428 5424 5421 5418 5414 5411 5407 5404 5400 5396 5393 5389 5386 5383 5380 5378 5376 5375 5374 5373 5373 5372 5371 5370 5368 5368 5367 5367 5367 5368 5368 5369 5370 5372 5373 5374 5375 5376 5377 5378
5426 5423 5420 5418 5414 5411 5408 5404 5401 5398 5395 5392 5388 5385 5382 5379 5376 5374 5372 5370 5369 5369 5368 5367 5366 5365 5364 5363 5362 5362 5362 5362 5362 5362 5363 5364 5365 5366 5367 5368 5369 5370 5372
5415 5413 5410 5407 5404 5401 5398 5395 5392 5389 5386 5384 5380 5378 5375 5372 5370 5368 5366 5365 5364 5363 5362 5362 5361 5360 5359 5358 5357 5357 5357 5356 5357 5357 5358 5358 5359 5360 5361 5362 5363 5364 5365
5406 5403 5400 5398 5395 5392 5389 5387 5384 5381 5379 5376 5374 5371 5368 5366 5364 5363 5361 5360 5359 5358 5357 5357 5356 5355 5354 5353 5353 5352 5352 5352 5352 5352 5352 5353 5354 5354 5355 5356 5357 5358 5359
5396 5394 5391 5389 5386 5384 5381 5379 5376 5374 5372 5370 5367 5365 5363 5361 5360 5358 5357 5356 5354 5354 5353 5352 5351 5350 5349 5348 5348 5348 5347 5347 5347 5347 5348 5348 5348 5349 5350 5350 5351 5352 5353
5388 5385 5383 5381 5378 5376 5374 5372 5370 5368 5366 5364 5362 5360 5358 5357 5355 5354 5353 5352 5351 5350 5349 5348 5347 5346 5345 5345 5344 5344 5343 5343 5343 5343 5343 5343 5343 5344 5345 5346 5346 5347 5347
5379 5377 5375 5373 5371 5369 5367 5365 5363 5362 5360 5358 5356 5355 5353 5352 5351 5350 5349 5348 5347 5346 5345 5344 5343 5342 5342 5341 5340 5340 5340 5340 5340 5339 5339 5339 5339 5340 5341 5341 5342 5342 5343
5372 5370 5368 5366 5364 5363 5361 5359 5358 5356 5354 5353 5351 5350 5349 5348 5347 5346 5345 5344 5343 5342 5341 5340 5339 5339 5338 5337 5337 5337 5336 5336 5336 5336 5336 5336 5336 5336 5337 5337 5338 5338 5338